GW5514 Weather Reports


time (UTC)temp
F
wind
direction
speed
knots
gust
knots
rain 1hr
in
rain 24hr
in
rain mn
in
humidity
%
barometer
mb
20260507014527 70 13 0.0 0.0 0.00 0.00 0.00 15 1016.8
20260507013021 70 302 0.0 0.0 0.00 0.00 0.00 15 1016.6
20260507011522 71 349 0.0 0.0 0.00 0.00 0.00 14 1016.5
20260507010030 71 341 0.0 0.0 0.00 0.00 0.00 15 1016.4
20260507004526 72 348 0.0 0.0 0.00 0.00 0.00 15 1016.3
20260507003016 72 342 0.0 0.0 0.00 0.00 0.00 14 1016.1
20260507001523 72 5 0.0 0.0 0.00 0.00 0.00 15 1015.9
20260507000026 73 284 0.0 0.0 0.00 0.00 0.00 15 1015.7
20260506234527 73 11 0.0 0.0 0.00 0.00 0.00 15 1015.7
20260506233014 73 343 0.0 0.0 0.00 0.00 0.00 16 1015.7
20260506231518 74 27 0.0 0.0 0.00 0.00 0.00 16 1015.7
20260506230027 73 304 0.0 0.0 0.00 0.00 0.00 15 1015.7
20260506224525 74 337 0.0 0.0 0.00 0.00 0.00 16 1015.6
20260506223027 74 56 0.0 0.0 0.00 0.00 0.00 16 1015.6
20260506221529 74 14 0.0 0.0 0.00 0.00 0.00 17 1015.7
20260506220023 74 355 0.0 0.0 0.00 0.00 0.00 16 1015.8
20260506214524 74 360 0.0 0.0 0.00 0.00 0.00 16 1015.9
20260506213027 75 340 0.0 0.0 0.00 0.00 0.00 16 1015.6
20260506211530 74 47 0.0 0.0 0.00 0.00 0.00 22 1015.7
20260506210015 74 44 0.0 0.0 0.00 0.00 0.00 18 1015.8
20260506204523 74 350 0.0 0.0 0.00 0.00 0.00 18 1015.8
20260506203026 74 355 0.0 0.0 0.00 0.00 0.00 17 1015.5
20260506201525 74 294 0.0 0.0 0.00 0.00 0.00 20 1015.4
20260506200016 74 5 0.0 0.0 0.00 0.00 0.00 21 1015.5
20260506194518 74 244 0.0 0.0 0.00 0.00 0.00 24 1015.7
20260506193028 72 355 0.0 0.0 0.00 0.00 0.00 24 1015.9
20260506191508 73 343 0.0 0.0 0.00 0.00 0.00 24 1016.0
20260506190017 70 348 0.0 0.0 0.00 0.00 0.00 26 1016.0
20260506184520 71 315 0.0 0.0 0.00 0.00 0.00 25 1016.0
20260506183022 69 15 0.0 0.0 0.00 0.00 0.00 29 1016.1
20260506181522 70 346 0.0 0.0 0.00 0.00 0.00 27 1016.3
20260506180020 69 273 0.0 0.0 0.00 0.00 0.00 28 1016.2
20260506174523 68 255 0.0 0.0 0.00 0.00 0.00 28 1016.2
20260506173021 67 73 0.0 0.0 0.00 0.00 0.00 30 1016.4
20260506171534 66 236 0.0 0.0 0.00 0.00 0.00 29 1016.1
20260506170025 64 176 0.0 0.0 0.00 0.00 0.00 31 1016.1
20260506164514 64 159 0.0 0.0 0.00 0.00 0.00 31 1016.2
20260506163028 63 175 0.0 0.0 0.00 0.00 0.00 31 1016.2
20260506161525 62 186 0.0 0.0 0.00 0.00 0.00 32 1016.2
20260506160024 62 256 0.0 0.0 0.00 0.00 0.00 33 1016.2
20260506154529 59 232 0.0 0.0 0.00 0.00 0.00 34 1016.2
20260506153016 58 190 0.0 0.0 0.00 0.00 0.00 36 1016.3
20260506151524 56 103 0.0 0.0 0.00 0.00 0.00 37 1016.5
20260506150028 55 130 0.0 0.0 0.00 0.00 0.00 39 1016.7
20260506144525 53 119 0.0 0.0 0.00 0.00 0.00 40 1016.8
20260506141530 50 104 0.0 0.0 0.00 0.00 0.00 46 1016.7
20260506140027 46 119 0.0 0.0 0.00 0.00 0.00 50 1016.4
20260506134528 43 119 0.0 0.0 0.00 0.00 0.00 54 1016.3
20260506133030 41 119 0.0 0.0 0.00 0.00 0.00 56 1016.0
20260506131526 40 119 0.0 0.0 0.00 0.00 0.00 60 1015.9
20260506130026 39 119 0.0 0.0 0.00 0.00 0.00 59 1015.7
20260506124523 39 119 0.0 0.0 0.00 0.00 0.00 59 1015.5
20260506123026 40 119 0.0 0.0 0.00 0.00 0.00 55 1015.2
20260506120014 41 119 0.0 0.0 0.00 0.00 0.00 56 1014.6
20260506114531 41 119 0.0 0.0 0.00 0.00 0.00 54 1014.4
20260506113019 42 119 0.0 0.0 0.00 0.00 0.00 53 1014.4
20260506104519 44 119 0.0 0.0 0.00 0.00 0.00 52 1014.1
20260506103018 45 119 0.0 0.0 0.00 0.00 0.00 50 1014.0
20260506094513 48 119 0.0 0.0 0.00 0.00 0.00 42 1013.7
20260506093016 49 119 0.0 0.0 0.00 0.00 0.00 40 1013.6
20260506091522 49 119 0.0 0.0 0.00 0.00 0.00 39 1013.5
20260506084510 50 118 0.0 0.0 0.00 0.00 0.00 37 1013.2
20260506073012 53 214 0.0 0.0 0.00 0.00 0.00 34 1013.1
20260506071524 54 207 0.0 0.0 0.00 0.00 0.00 33 1013.1
20260506061524 54 213 0.0 0.0 0.00 0.00 0.00 34 1012.8
20260506044528 57 283 0.0 0.0 0.00 0.00 0.00 29 1012.1
20260506041525 57 227 0.0 0.0 0.00 0.00 0.00 31 1011.6
20260506040026 58 250 0.0 0.0 0.00 0.00 0.00 31 1011.3
20260506034518 58 219 0.0 0.0 0.00 0.00 0.00 30 1011.0
20260506033032 58 206 0.0 0.0 0.00 0.00 0.00 30 1010.7
20260506031533 59 255 0.0 0.0 0.00 0.00 0.00 28 1010.3
20260506030046 59 279 0.0 0.0 0.00 0.00 0.00 27 1010.0
20260506024531 60 274 0.0 0.0 0.00 0.00 0.00 26 1009.7
20260506023027 61 262 0.0 0.0 0.00 0.00 0.00 26 1009.2
20260506021521 61 244 0.0 0.0 0.00 0.00 0.00 25 1008.9
20260506020025 63 290 0.0 0.0 0.00 0.00 0.00 25 1008.6